Regional Weather Roundup
Issued by NWS

Home | Current Version | Previous Version | Text Only | Print | Product List | Glossary Off
Versions: 1 2 3 4 5 6 7 8 9 10 11 12 13 14 15 16 17 18 19 20 21 22 23 24 25 26 27 28 29 30 31 32 33 34 35 36 37 38 39 40 41 42 43 44 45 46 47 48 49 50

000
ASUS43 KFSD 170010
RWRSD

WEATHER ROUNDUP FOR SOUTH DAKOTA
NATIONAL WEATHER SERVICE SIOUX FALLS SD
700 PM CDT WED AUG 16 2017

NOTE: "FAIR" INDICATES FEW OR NO CLOUDS BELOW 12,000 FEET WITH NO
SIGNIFICANT WEATHER AND/OR OBSTRUCTIONS TO VISIBILITY.


SDZ001>005-009-010-012>017-170100-
NORTHWEST AND NORTH CENTRAL SOUTH DAKOTA

CITY           SKY/WX    TMP DP  RH WIND       PRES   REMARKS
BUFFALO          N/A     81  45  28 E3        29.89F
FAITH            N/A     77  47  34 NE9       29.94F
MOBRIDGE       CLOUDY    73  62  68 NW8       29.87S
$$

SDZ012>016-024>037-041>051-057-063-072>074-170100-
SOUTHWEST AND SOUTH CENTRAL SOUTH DAKOTA

CITY           SKY/WX    TMP DP  RH WIND       PRES   REMARKS
RAPID CTY ARPT SUNNY     79  46  31 N12       29.97F
PIERRE         CLOUDY    71  58  63 NW15      29.88S
CUSTER         CLOUDY    65  47  52 SE7       30.12R
ELLSWORTH AFB  SUNNY     79  47  32 N8        29.97F
PHILIP         SUNNY     79  45  29 N15       29.93S
PINE RIDGE     SUNNY     78  47  33 NE6       30.00S
SPEARFISH      FAIR      75  45  33 NE6       30.02F
WINNER         FAIR      70  62  76 NW17      29.90S
$$

SDZ004>011-016>023-039-040-170100-
NORTHEAST SOUTH DAKOTA

CITY           SKY/WX    TMP DP  RH WIND       PRES   REMARKS
ABERDEEN       CLOUDY    67  66  97 N15       29.81F
WATERTOWN      CLOUDY    66  66 100 N13       29.75S
BROOKINGS      RAIN      65  64  97 N9        29.74F
SISSETON         N/A     68  67  96 N9        29.76F
$$

SDZ017-020-022-023-036>040-048>070-170100-
SOUTHEAST SOUTH DAKOTA

CITY           SKY/WX    TMP DP  RH WIND       PRES   REMARKS
SIOUX FALLS    CLOUDY    68  68 100 W8        29.72S
HURON          LGT RAIN  67  67 100 NW10      29.78F
CHAMBERLAIN    CLOUDY    67  65  93 W13G20    29.86S
MITCHELL       LGT RAIN  67  65  93 NW13      29.78F
YANKTON        CLOUDY    67  63  87 W18       29.78S
$$

ABBREVIATIONS USED IN REMARKS
   TC - TEMPERATURE IN CELSIUS
  WCI - WIND CHILL INDEX
   HX - HEAT INDEX
  VSB - VISIBILITY





USA.gov is the U.S. government's official web portal to all federal, state and local government web resources and services.